Regional Weather Roundup
Issued by NWS San Diego, CA

Home | Current Version | Previous Version | Text Only | Print | Product List | Glossary On
Versions: 1 2 3 4 5 6 7 8 9 10 11 12 13 14 15 16 17 18 19 20 21 22 23 24 25 26 27 28 29 30 31 32 33 34 35 36 37 38 39 40 41 42 43 44 45 46 47 48 49 50
000
ASUS46 KSGX 270510
RWRSGX

SAN DIEGO HOURLY WEATHER ROUNDUP
NATIONAL WEATHER SERVICE SAN DIEGO CA
900 PM PST FRI DEC 26 2014

NOTE: "FAIR" INDICATES FEW OR NO CLOUDS BELOW 12,000 FEET WITH NO
SIGNIFICANT WEATHER AND/OR OBSTRUCTIONS TO VISIBILITY.

CAZ042-043-060-061-PZZ750-775-270600-

GREATER SAN DIEGO AREA

CITY           SKY/WX    TMP DP  RH WIND       PRES   REMARKS
LINDBERGH FLD  CLEAR     53  33  46 CALM      30.17R
POINT LOMA       N/A     51  31  47 NE3         N/A
NATIONAL CITY    N/A     50  33  51 CALM      30.17R
CHULA VISTA      N/A     47  34  61 NW1       30.09R
IMPERIAL BEACH CLEAR     48  32  53 E6        30.16R
BROWN FIELD    CLEAR     49  24  37 SE7       30.14R
MIRAMAR MCAS   CLEAR     46  30  53 NE6       30.15R
MONTGOMERY FLD CLEAR     50  31  48 CALM      30.16R

$$

NORTH SAN DIEGO COUNTY

CITY           SKY/WX    TMP DP  RH WIND       PRES   REMARKS
CAMP PENDLETON CLEAR     44  24  45 W5        30.17R
OCEANSIDE AP   CLEAR     41  30  65 CALM      30.16R
OCEANSIDE HBR    N/A     48  30  49 NE5       30.19R
VISTA            N/A     46  28  48 CALM      30.15R
CARLSBAD       CLEAR     51  21  30 N3        30.15R
DEL MAR          N/A     48  34  58 CALM      30.18R
LA JOLLA SCRIP   N/A     52  35  52 CALM      30.14R
FALLBROOK        N/A     51  20  29 SE10      30.17R
ESCONDIDO        N/A     47  31  53 CALM      30.19R
SAN MARCOS       N/A     50  24  36 CALM      30.15R
POWAY            N/A     42  32  68 CALM      30.20R

$$

EAST SAN DIEGO COUNTY

CITY           SKY/WX    TMP DP  RH WIND       PRES   REMARKS
RAMONA         CLEAR     39  21  48 E5        30.15R
LA MESA          N/A     49  29  45 CALM      30.10R
JAMUL            N/A     42  27  54 CALM      30.17R
DESCANSO N       N/A     40  13  33 E7        30.11R WCI  35
MT. LAGUNA OBS   N/A     26   7  43 NE6       29.67S WCI  19
CAMPO            N/A     34  14  43 E9        30.11R WCI  27

$$

ORANGE COUNTY AND THE LOS ANGELES BASIN

CITY           SKY/WX    TMP DP  RH WIND       PRES   REMARKS
JOHN WAYNE AP  CLEAR     58  13  17 NE10G16   30.17R
LAGUNA BEACH     N/A     43  27  52 CALM      30.13R
LAKE FOREST FR   N/A     52  11  19 NE12      30.07R
SANTA ANA        N/A     54  21  27 N3        30.13R
HUNTINGTON BCH   N/A     52  20  28 E3        30.19R
LOS ALAMITOS   CLEAR     48  26  42 E5        30.18R
FULLERTON      CLEAR     48  25  40 E3        30.17R
LONG BEACH     CLEAR     50  27  40 CALM      30.17R
L.A. AP        CLEAR     51  22  31 E9        30.17R
L.A. DOWNTOWN  CLEAR     51  27  39 E6        30.17R

$$

THE INLAND EMPIRE

CITY           SKY/WX    TMP DP  RH WIND       PRES   REMARKS
CORONA         CLEAR     52  14  22 CALM      30.20R
CHINO          CLEAR     54  14  20 E12G25    30.18R
ONTARIO        CLEAR     53  11  18 NE22G33   30.17R
SAN BERNARDINO CLEAR    N/A N/A N/A N3        30.20R
RIVERSIDE AP   CLEAR     52  12  20 N7        30.20R
RIV CYN CREST    N/A     52  26  36 NE10        N/A
MORENO VALLEY    N/A     45  23  42 E1        29.37R
MARCH ARB      CLEAR     46  14  28 N13       30.18R
HORSETHIEF CYN   N/A     45  11  25 SW8       30.20R
PERRIS           N/A     46  24  41 SW2       30.15R
MENIFEE          N/A     44  25  48 CALM      30.22R
HEMET EAST       N/A     41  13  31 CALM      30.21R
FRENCH VALLEY  FAIR      43  19  39 CALM      30.18R
TEMECULA         N/A     46  26  47 NE6       30.13R

$$

SAN BERNARDINO AND RIVERSIDE COUNTY MOUNTAINS

CITY           SKY/WX    TMP DP  RH WIND       PRES   REMARKS
BIG BEAR AP    CLEAR     23   5  46 N14G21    30.13R WCI  11
PINE COVE        N/A     27  11  51 CALM      30.25R

$$

SOUTHERN DESERT INCLUDING THE COACHELLA VALLEY

CITY           SKY/WX    TMP DP  RH WIND       PRES   REMARKS
PALM SPRINGS   CLEAR     52  12  20 SW5       30.24R
THOUSAND PALMS   N/A     54  13  19 W2        30.19R
PALM DESERT      N/A     53  15  22 CALM      30.73R
THERMAL        CLEAR     48  12  23 NW6       30.21R
BLYTHE         CLEAR     47  14  26 NW8       30.18R
IMPERIAL AP    CLEAR     41  21  44 W7        30.19R
EL CENTRO NAS  CLEAR     40  14  34 W8        30.19R WCI  34
YUMA AZ        CLEAR     50  17  27 NW6       30.17R
MEXICALI       CLEAR     50  18  27 NW3       30.18

$$

UPPER DESERT

CITY           SKY/WX    TMP DP  RH WIND       PRES   REMARKS
VICTORVILLE AP   N/A     34  16  47 CALM      30.23R
HESPERIA         N/A     36  16  44 CALM      30.45R
PALMDALE       CLEAR     32  19  58 SE10      30.23R WCI  24
LANCASTER      CLEAR     29  21  72 NE7       30.23R WCI  22
EDWARDS AFB    CLEAR     34  21  60 E3        30.22R
DAGGETT        CLEAR     40  11  30 S5        30.24R
29 PALMS N     CLEAR     39  10  30 NW3       30.28R
NEEDLES        CLEAR     46  11  24 NW10      30.18R

$$

REGIONAL REPORTS

CITY           SKY/WX    TMP DP  RH WIND       PRES   REMARKS
SANTA BARBARA  CLEAR     46  37  71 CALM      30.18R
SANDBERG       CLEAR     33  11  39 NE8       30.18R WCI  26
MT. WILSON       N/A     28   5  37 NW7         N/A  WCI  21
LAS VEGAS NV   CLEAR     44   9  23 NW13      30.18R
PHOENIX AZ     CLEAR     46  25  43 E5        30.09R
TIJUANA        CLEAR     50  18  27 SE6       30.17R
ENSENADA NW      N/A     54  32  42 NE17      30.12R

$$

OFFSHORE ISLANDS

CITY           SKY/WX    TMP DP  RH WIND       PRES   REMARKS
CATALINA ARPT  CLEAR     50  27  40 NW3       30.18R
SAN NICOLAS IS CLEAR    N/A N/A N/A N12       30.17R

$$

MARINE AND OFFSHORE BUOY REPORTS

STATION/POSITION SKY/WX   TEMP    WIND        PRES    SWELL
                          AIR SEA DIR/SP/G            HT/PER/DIR
                          (F)     (DEG/KT/KT) (MB)    (FT/S/D)
TANNER BANKS               59 63   10/  8/ 10 1021.2R   8/300/11
S CLEMENTE BASIN           61 64   10/ 12/ 16 1020.7R   5/290/11
SAN NICOLAS IS.               62                N/A     5/300/13
SO. S. ROSA ISLA           57 58  340/  6/  8 1021.4R   7/10
W. S. BARBARA CH           58 61   CALM  /  4 1021.1R   8/290/13
S. MONICA BASIN            59 63   10/ 12/ 14 1021.9R   3/320/14
S PEDRO CHANNEL               63                N/A     2/260/14
DANA POINT                    63                N/A     2/280/11
CMP PENDLETON NS              63                N/A     2/240/13
OCEANSIDE OFFSHR              64                N/A     2/230/13
TORREY PINES OTR              64                N/A     2/280/13
LA JOLLA 1                 53 63   CALM  /  1 1021.3R
MISSION BAY BUOY              64                N/A     2/280/11
SAN DIEGO BAY                 64              1021.6R
POINT LOMA SOUTH              64                N/A     3/260/13

$$



USA.gov is the U.S. government's official web portal to all federal, state and local government web resources and services.